Weather History for KATY - March, 2014

Change the Weather History Date:

Tuesday, March 11, 2014

  Actual Average Record
Temperature  
Mean Temperature 32 °F 27 °F  
Max Temperature 41 °F 36 °F 66 °F (1990)
Min Temperature 23 °F 18 °F -27 °F (1948)
Degree Days  
Heating Degree Days 33 38  
Month to date heating degree days 537 440  
Since 1 July heating degree days 7503 6851  
Cooling Degree Days 0 0  
Month to date cooling degree days 0 0  
Year to date cooling degree days 0 0  
Moisture  
Dew Point 30 °F    
Average Humidity 85    
Maximum Humidity 100    
Minimum Humidity 69    
Precipitation  
Precipitation 0.31 in 0.03 in 1.13 in (1977)
Month to date precipitation 0.52 0.33  
Year to date precipitation 0.95 1.41  
Snow  
Snow T in - - ()
Month to date snowfall 3.5  
Since 1 July snowfall 20.9  
Snow Depth 2.00 in    
Sea Level Pressure  
Sea Level Pressure 29.92 in    
Wind  
Wind Speed 12 mph (North)    
Max Wind Speed 24 mph    
Max Gust Speed 29 mph    
Visibility 8 miles    
Events Rain , Snow    
T = Trace of Precipitation, MM = Missing Value Source: NWS Daily Summary

Daily Weather History Graph

Daily Weather History Graph

Search for Another Location

Airport or City:

Trip Planner

Search our weather history database for the weather conditions in past years. The results will help you decide how hot, cold, wet, or windy it might be!

Date:

Astronomy

Mar. 11, 2014 Rise Set
Actual Time 7:48 AM CDT 7:29 PM CDT
Civil Twilight 7:19 AM CDT 7:58 PM CDT
Nautical Twilight 6:45 AM CDT 8:32 PM CDT
Astronomical Twilight 6:10 AM CDT 9:07 PM CDT
Moon 2:58 PM CDT (3/11) 4:52 AM CDT (3/11)
Length of Visible Light 12h 39m
Length of Day
11h 41m
Waxing Gibbous, 78% of the Moon is Illuminated
Mar 11
Waxing Gibbous
Mar 16
Full
Mar 23
Last Quarter
Mar 30
New
Apr 7
First Quarter

Hourly Weather History & Observations

Time (CDT) Temp. Windchill Dew Point Humidity Pressure Visibility Wind Dir Wind Speed Gust Speed Precip Events Conditions
12:53 AM 37.9 °F 31.5 °F 32.0 °F 79% 29.78 in 10.0 mi NNE 9.2 mph - N/A   Overcast
1:53 AM 37.0 °F 29.3 °F 33.1 °F 86% 29.78 in 10.0 mi NNE 11.5 mph - 0.00 in Rain Light Rain
2:11 AM 37.0 °F 28.9 °F 33.1 °F 86% 29.75 in 8.0 mi NNE 12.7 mph - 0.00 in Rain Light Rain
2:53 AM 36.0 °F 27.5 °F 33.1 °F 89% 29.78 in 8.0 mi NE 12.7 mph - 0.01 in Rain Light Rain
3:53 AM 35.1 °F 26.9 °F 33.1 °F 92% 29.76 in 9.0 mi NE 11.5 mph - 0.01 in Rain Light Rain
4:27 AM 34.0 °F 27.2 °F 33.1 °F 96% 29.74 in 6.0 mi NNE 8.1 mph - 0.04 in Rain Light Rain
4:50 AM 33.8 °F 24.3 °F 32.0 °F 93% 29.74 in 2.5 mi NNE 13.8 mph - 0.07 in Snow Light Snow
4:51 AM 33.1 °F 23.9 °F 32.0 °F 96% 29.78 in 2.5 mi NNE 12.7 mph - 0.07 in Snow Light Snow
4:59 AM 33.1 °F 24.4 °F 32.0 °F 96% 29.73 in 2.5 mi NNE 11.5 mph - 0.01 in Snow Light Snow
5:04 AM 33.1 °F 24.4 °F 32.0 °F 96% 29.73 in 3.0 mi NNE 11.5 mph - 0.01 in Snow Light Snow
5:16 AM 33.1 °F 24.9 °F 32.0 °F 96% 29.74 in 3.0 mi NNE 10.4 mph - 0.02 in Snow Light Snow
5:23 AM 33.1 °F 25.5 °F 32.0 °F 96% 29.75 in 2.0 mi NNE 9.2 mph - 0.02 in Snow Light Snow
5:31 AM 32.0 °F 24.2 °F 32.0 °F 100% 29.75 in 3.0 mi NNE 9.2 mph - 0.02 in Snow Light Snow
5:39 AM 32.0 °F 24.2 °F 32.0 °F 100% 29.76 in 4.0 mi North 9.2 mph - 0.03 in Snow Light Snow
5:53 AM 33.1 °F 25.5 °F 32.0 °F 96% 29.82 in 3.0 mi North 9.2 mph - 0.03 in Snow Light Snow
6:08 AM 32.0 °F 23.6 °F 32.0 °F 100% 29.78 in 1.8 mi North 10.4 mph - 0.02 in Snow Light Snow
6:15 AM 32.0 °F 23.6 °F 32.0 °F 100% 29.79 in 1.5 mi North 10.4 mph - 0.03 in Snow Light Snow
6:29 AM 32.0 °F 26.4 °F 32.0 °F 100% 29.79 in 2.5 mi North 5.8 mph - 0.05 in Snow Light Snow
6:36 AM 32.0 °F - 32.0 °F 100% 29.79 in 4.0 mi Calm Calm - 0.05 in Snow Light Snow
6:53 AM 32.0 °F 26.4 °F 32.0 °F 100% 29.85 in 5.0 mi North 5.8 mph - 0.05 in   Overcast
7:13 AM 32.0 °F 28.7 °F 32.0 °F 100% 29.80 in 5.0 mi North 3.5 mph - 0.00 in   Overcast
7:53 AM 33.1 °F 26.1 °F 32.0 °F 96% 29.88 in 9.0 mi North 8.1 mph - 0.00 in   Overcast
8:53 AM 33.1 °F 27.7 °F 32.0 °F 96% 29.90 in 10.0 mi North 5.8 mph - N/A   Overcast
9:53 AM 34.0 °F 26.0 °F 32.0 °F 92% 29.92 in 10.0 mi NNE 10.4 mph - N/A   Partly Cloudy
10:53 AM 36.0 °F 27.1 °F 30.9 °F 82% 29.95 in 10.0 mi NNE 13.8 mph - N/A   Clear
11:53 AM 37.0 °F 28.1 °F 32.0 °F 82% 29.98 in 10.0 mi NNE 15.0 mph - N/A   Clear
12:53 PM 37.9 °F 29.2 °F 30.9 °F 76% 30.00 in 10.0 mi NNE 15.0 mph - N/A   Clear
1:53 PM 39.9 °F 31.1 °F 32.0 °F 73% 30.02 in 10.0 mi NNE 17.3 mph - N/A   Mostly Cloudy
2:16 PM 39.9 °F 30.8 °F 32.0 °F 73% 29.98 in 10.0 mi North 18.4 mph 23.0 mph N/A   Scattered Clouds
2:53 PM 39.0 °F 30.3 °F 30.9 °F 73% 30.03 in 10.0 mi North 16.1 mph - N/A   Mostly Cloudy
3:05 PM 39.9 °F 31.1 °F 30.9 °F 70% 29.98 in 10.0 mi North 17.3 mph - N/A   Scattered Clouds
3:12 PM 39.0 °F 29.3 °F 30.9 °F 73% 29.98 in 10.0 mi North 19.6 mph - N/A   Mostly Cloudy
3:53 PM 39.0 °F 29.0 °F 30.0 °F 70% 30.05 in 10.0 mi North 20.7 mph - N/A   Scattered Clouds
4:03 PM 39.0 °F 29.0 °F 30.0 °F 70% 30.01 in 10.0 mi North 20.7 mph 27.6 mph N/A   Mostly Cloudy
4:48 PM 37.4 °F 27.5 °F 28.4 °F 70% 30.03 in 10.0 mi North 18.4 mph - N/A   Scattered Clouds
4:53 PM 36.0 °F 25.3 °F 27.0 °F 70% 30.08 in 10.0 mi North 19.6 mph - N/A   Scattered Clouds
5:53 PM 35.1 °F 24.1 °F 26.1 °F 70% 30.10 in 10.0 mi North 19.6 mph - N/A   Partly Cloudy
6:53 PM 33.1 °F 22.6 °F 25.0 °F 72% 30.13 in 10.0 mi North 16.1 mph - N/A   Clear
7:33 PM 32.0 °F 21.6 °F 25.0 °F 75% 30.10 in 10.0 mi NNW 15.0 mph - N/A   Mostly Cloudy
7:53 PM 32.0 °F 21.2 °F 25.0 °F 75% 30.18 in 10.0 mi NNW 16.1 mph - N/A   Overcast
8:15 PM 32.0 °F 23.0 °F 25.0 °F 75% 30.12 in 10.0 mi North 11.5 mph - N/A   Overcast
8:53 PM 28.9 °F 21.9 °F 24.1 °F 82% 30.17 in 10.0 mi NNW 6.9 mph - N/A   Scattered Clouds
9:53 PM 28.9 °F 21.9 °F 25.0 °F 85% 30.18 in 10.0 mi North 6.9 mph - N/A   Mostly Cloudy
10:53 PM 27.0 °F 18.0 °F 24.1 °F 89% 30.19 in 10.0 mi NNE 9.2 mph - N/A   Mostly Cloudy
11:16 PM 26.1 °F 17.6 °F 23.0 °F 88% 30.12 in 10.0 mi NNE 8.1 mph - N/A   Scattered Clouds
11:53 PM 24.1 °F 17.0 °F 21.9 °F 91% 30.19 in 10.0 mi NNE 5.8 mph - N/A   Clear